Location: Eymir
(36.7333°N, 29.7833°E)
Time: 17:50:55
(UTC+00:00)

Meteor 2-10 Rocket - Pass Details

Date: 14 January 2026
Orbit: 733 x 881 km, 81.2° (Epoch: 17 February)

Event Time Altitude Azimuth Distance (km) Brightness Sun altitude
Rises 04:06:03 0° 202° (SSW) 3,150 6.6 -13.3°
Reaches altitude 10° 04:08:25 10° 208° (SSW) 2,239 5.8 -12.8°
Maximum altitude 04:13:15 48° 282° (WNW) 977 3.6 -11.9°
Drops below altitude 10° 04:18:15 10° 357° (N) 2,316 5.8 -10.9°
Sets 04:20:45 0° 3° (N) 3,269 6.6 -10.5°
